This is the latest recevied weather packets stored in our database for station/object K7FRY. If no packets are shown the sender has not sent any weather packets the latest 10 day(s).
| Time | Temp. | Humidity | Pressure | Rain* | Wind** | Luminosity | Snow |
|---|---|---|---|---|---|---|---|
| 1777428878 | 25° C | 18% | 1015.3 hPa | 0 mm | - | 0 W/m² | - |
| 1777428574 | 25° C | 18% | 1015.1 hPa | 0 mm | - | 0 W/m² | - |
| 1777428270 | 25° C | 18% | 1015.1 hPa | 0 mm | - | 0 W/m² | - |
| 1777427965 | 25° C | 18% | 1015.2 hPa | 0 mm | - | 1 W/m² | - |
| 1777427662 | 25° C | 18% | 1015.2 hPa | 0 mm | - | 3 W/m² | - |
| 1777427358 | 25.56° C | 18% | 1015.1 hPa | 0 mm | - | 6 W/m² | - |
| 1777427050 | 25.56° C | 18% | 1015.1 hPa | 0 mm | - | 9 W/m² | - |
| 1777426747 | 26.11° C | 17% | 1015 hPa | 0 mm | - | 12 W/m² | - |
| 1777426444 | 26.11° C | 17% | 1015 hPa | 0 mm | - | 18 W/m² | - |
| 1777426139 | 26.67° C | 16% | 1015 hPa | 0 mm | - | 26 W/m² | - |
| 1777425834 | 26.67° C | 16% | 1015 hPa | 0 mm | - | 30 W/m² | - |
| 1777425529 | 26.67° C | 16% | 1015.1 hPa | 0 mm | - | 39 W/m² | - |
| 1777425224 | 26.67° C | 16% | 1015.1 hPa | 0 mm | - | 44 W/m² | - |
| 1777424922 | 26.67° C | 16% | 1014.8 hPa | 0 mm | - | 47 W/m² | - |
| 1777424618 | 27.22° C | 15% | 1015 hPa | 0 mm | - | 54 W/m² | - |
| 1777424312 | 27.22° C | 15% | 1015 hPa | 0 mm | - | 62 W/m² | - |
| 1777424009 | 27.78° C | 15% | 1015 hPa | 0 mm | - | 73 W/m² | - |
| 1777423706 | 27.78° C | 15% | 1015 hPa | 0 mm | - | 95 W/m² | - |
| 1777423402 | 27.78° C | 14% | 1015 hPa | 0 mm | - | 163 W/m² | - |
| 1777423101 | 28.33° C | 14% | 1015 hPa | 0 mm | - | 151 W/m² | - |
| 1777422797 | 28.33° C | 14% | 1015.1 hPa | 0 mm | - | 181 W/m² | - |
| 1777422493 | 28.33° C | 14% | 1015.2 hPa | 0 mm | - | 149 W/m² | - |
| 1777422189 | 28.33° C | 14% | 1014.9 hPa | 0 mm | - | 174 W/m² | - |
| 1777421888 | 27.78° C | 14% | 1014.9 hPa | 0 mm | - | 255 W/m² | - |
| 1777421584 | 27.78° C | 14% | 1014.6 hPa | 0 mm | - | 204 W/m² | - |
* Rain latest hour (hover to see other rain measurements)
** Current wind speed in m/s (hover to see current wind gust speed)